H1 CPF 2 NER 2024 9 30 9 274 01 glonass146 H2 2216101 9146 54377 2024 9 30 0 0 0 2024 10 3 23 45 0 900 1 1 0 0 0 1 H9 10 0 60583 0.00000 0 16044044.086 14306015.904 -13692446.234 10 0 60583 900.00000 0 14382031.795 13497378.614 -16141946.326 10 0 60583 1800.00000 0 12397464.692 12723312.846 -18277133.428 10 0 60583 2700.00000 0 10128480.214 12035515.026 -20056491.824 10 0 60583 3600.00000 0 7623864.971 11478663.317 -21445462.625 10 0 60583 4500.00000 0 4941252.463 11088455.794 -22417113.487 10 0 60583 5400.00000 0 2144955.954 10890047.412 -22952656.771 10 0 60583 6300.00000 0 -696472.974 10896951.329 -23041806.730 10 0 60583 7200.00000 0 -3512858.401 11110450.318 -22682969.596 10 0 60583 8100.00000 0 -6235077.985 11519542.200 -21883263.751 10 0 60583 9000.00000 0 -8797693.859 12101420.669 -20658370.442 10 0 60583 9900.00000 0 -11141427.874 12822470.324 -19032218.709 10 0 60583 10800.00000 0 -13215379.303 13639733.142 -17036511.277 10 0 60583 11700.00000 0 -14978894.158 14502783.986 -14710101.085 10 0 60583 12600.00000 0 -16403009.858 15355935.621 -12098230.893 10 0 60583 13500.00000 0 -17471416.857 16140680.117 -9251650.975 10 0 60583 14400.00000 0 -18180898.972 16798263.664 -6225632.090 10 0 60583 15300.00000 0 -18541235.918 17272286.400 -3078892.968 10 0 60583 16200.00000 0 -18574573.868 17511217.887 127536.889 10 0 60583 17100.00000 0 -18314292.052 17470722.520 3331497.161 10 0 60583 18000.00000 0 -17803414.208 17115697.195 6470896.633 10 0 60583 18900.00000 0 -17092632.563 16421935.617 9484910.141 10 0 60583 19800.00000 0 -16238027.936 15377349.305 12315149.725 10 0 60583 20700.00000 0 -15298581.997 13982693.777 14906787.788 10 0 60583 21600.00000 0 -14333586.073 12251768.968 17209611.208 10 0 60583 22500.00000 0 -13400055.005 10211084.672 19178986.723 10 0 60583 23400.00000 0 -12550254.078 7899003.823 20776719.675 10 0 60583 24300.00000 0 -11829442.238 5364397.934 21971790.244 10 0 60583 25200.00000 0 -11273925.745 2664868.975 22740953.566 10 0 60583 26100.00000 0 -10909503.529 -135390.188 23069192.474 10 0 60583 27000.00000 0 -10750369.385 -2968009.784 22950014.241 10 0 60583 27900.00000 0 -10798517.244 -5763033.216 22385585.311 10 0 60583 28800.00000 0 -11043675.083 -8451577.294 21386700.837 10 0 60583 29700.00000 0 -11463771.057 -10968453.560 19972588.680 10 0 60583 30600.00000 0 -12025913.377 -13254642.826 18170550.484 10 0 60583 31500.00000 0 -12687843.809 -15259520.577 16015445.496 10 0 60583 32400.00000 0 -13399804.693 -16942740.793 13549025.802 10 0 60583 33300.00000 0 -14106741.601 -18275699.563 10819134.656 10 0 60583 34200.00000 0 -14750749.150 -19242516.965 7878782.593 10 0 60583 35100.00000 0 -15273656.675 -19840495.773 4785118.686 10 0 60583 36000.00000 0 -15619643.969 -20080037.426 1598316.831 10 0 60583 36900.00000 0 -15737775.482 -19984018.652 -1619600.924 10 0 60583 37800.00000 0 -15584344.395 -19586655.179 -4805980.362 10 0 60583 38700.00000 0 -15124925.776 -18931900.923 -7898765.665 10 0 60583 39600.00000 0 -14336050.251 -18071450.993 -10837719.304 10 0 60583 40500.00000 0 -13206425.751 -17062433.966 -13565606.191 10 0 60583 41400.00000 0 -11737654.232 -15964892.080 -16029317.825 10 0 60583 42300.00000 0 -9944411.903 -14839157.054 -18180913.506 10 0 60583 43200.00000 0 -7854084.423 -13743233.461 -19978557.691 10 0 60583 44100.00000 0 -5505871.765 -12730300.929 -21387334.962 10 0 60583 45000.00000 0 -2949399.941 -11846441.026 -22379926.761 10 0 60583 45900.00000 0 -242897.516 -11128684.730 -22937137.167 10 0 60583 46800.00000 0 2548986.977 -10603462.358 -23048258.124 10 0 60583 47700.00000 0 5357635.724 -10285520.507 -22711267.838 10 0 60583 48600.00000 0 8113078.487 -10177350.536 -21932859.344 10 0 60583 49500.00000 0 10746667.091 -10269151.406 -20728299.563 10 0 60583 50400.00000 0 13193696.778 -10539327.137 -19121122.309 10 0 60583 51300.00000 0 15395866.255 -10955496.661 -17142661.876 10 0 60583 52200.00000 0 17303475.153 -11475972.419 -14831436.691 10 0 60583 53100.00000 0 18877268.701 -12051644.466 -12232395.390 10 0 60583 54000.00000 0 20089854.266 -12628190.007 -9396040.142 10 0 60583 54900.00000 0 20926632.307 -13148514.750 -6377444.363 10 0 60583 55800.00000 0 21386204.524 -13555322.905 -3235183.947 10 0 60583 56700.00000 0 21480243.784 -13793707.398 -30202.743 10 0 60583 57600.00000 0 21232832.792 -13813651.175 3175365.831 10 0 60583 58500.00000 0 20679300.509 -13572334.249 6319398.293 10 0 60583 59400.00000 0 19864606.126 -13036149.459 9340978.753 10 0 60583 60300.00000 0 18841339.060 -12182342.047 12181571.921 10 0 60583 61200.00000 0 17667419.223 -11000203.959 14786149.192 10 0 60583 62100.00000 0 16403594.012 -9491772.273 17104246.695 10 0 60583 63000.00000 0 15110836.645 -7672001.708 19090935.545 10 0 60583 63900.00000 0 13847754.380 -5568402.896 20707686.281 10 0 60583 64800.00000 0 12668114.503 -3220160.109 21923111.511 10 0 60583 65700.00000 0 11618590.961 -676763.467 22713573.022 10 0 60583 66600.00000 0 10736825.368 2003789.285 23063642.005 10 0 60583 67500.00000 0 10049883.105 4757148.718 22966403.599 10 0 60583 68400.00000 0 9573168.929 7515039.783 22423599.665 10 0 60583 69300.00000 0 9309847.647 10207859.049 21445606.407 10 0 60583 70200.00000 0 9250794.499 12767336.820 20051246.418 10 0 60583 71100.00000 0 9375077.958 15129154.684 18267437.578 10 0 60583 72000.00000 0 9650955.437 17235410.369 16128684.342 10 0 60583 72900.00000 0 10037340.775 19036827.576 13676419.923 10 0 60583 73800.00000 0 10485682.340 20494618.569 10958210.943 10 0 60583 74700.00000 0 10942172.938 21581921.294 8026839.063 10 0 60583 75600.00000 0 11350198.173 22284750.352 4939276.867 10 0 60583 76500.00000 0 11652919.367 22602421.398 1755577.753 10 0 60583 77400.00000 0 11795880.873 22547430.687 -1462298.217 10 0 60583 78300.00000 0 11729530.135 22144794.654 -4651698.946 10 0 60583 79200.00000 0 11411542.273 21430877.488 -7750510.716 10 0 60583 80100.00000 0 10808849.012 20451756.601 -10698379.152 10 0 60583 81000.00000 0 9899284.402 19261195.725 -13437895.634 10 0 60583 81900.00000 0 8672776.062 17918312.193 -15915724.874 10 0 60583 82800.00000 0 7132030.254 16485037.918 -18083650.641 10 0 60583 83700.00000 0 5292680.709 15023482.213 -19899518.607 10 0 60583 84600.00000 0 3182894.079 13593308.482 -21328057.651 10 0 60583 85500.00000 0 842447.991 12249235.836 -22341563.648 10 0 60584 0.00000 0 -1678679.773 11038771.029 -22920432.835 10 0 60584 900.00000 0 -4322153.536 10000265.167 -23053535.218 10 0 60584 1800.00000 0 -7023473.223 9161377.753 -22738420.917 10 0 60584 2700.00000 0 -9714432.219 8538009.297 -21981357.332 10 0 60584 3600.00000 0 -12325734.145 8133747.579 -20797196.413 10 0 60584 4500.00000 0 -14789661.302 7939848.578 -19209075.734 10 0 60584 5400.00000 0 -17042684.081 7935751.327 -17247959.779 10 0 60584 6300.00000 0 -19027903.580 8090103.484 -14952030.780 10 0 60584 7200.00000 0 -20697226.654 8362253.041 -12365941.297 10 0 60584 8100.00000 0 -22013183.987 8704142.201 -9539943.271 10 0 60584 9000.00000 0 -22950316.672 9062522.710 -6528910.533 10 0 60584 9900.00000 0 -23496074.776 9381398.606 -3391273.823 10 0 60584 10800.00000 0 -23651191.789 9604593.020 -187888.976 10 0 60584 11700.00000 0 -23429520.599 9678330.557 3019139.898 10 0 60584 12600.00000 0 -22857339.076 9553726.325 6167659.493 10 0 60584 13500.00000 0 -21972155.306 9189076.693 9196665.682 10 0 60584 14400.00000 0 -20821063.262 8551855.288 12047478.341 10 0 60584 15300.00000 0 -19458718.140 7620330.079 14664870.337 10 0 60584 16200.00000 0 -17945016.256 6384733.240 16998129.442 10 0 60584 17100.00000 0 -16342576.332 4847934.075 19002033.392 10 0 60584 18000.00000 0 -14714127.051 3025585.833 20637719.933 10 0 60584 18900.00000 0 -13119909.400 945738.967 21873435.806 10 0 60584 19800.00000 0 -11615201.525 -1352064.688 22685150.795 10 0 60584 20700.00000 0 -10248068.710 -3818180.925 23057025.393 10 0 60584 21600.00000 0 -9057431.743 -6394679.619 22981723.133 10 0 60584 22500.00000 0 -8071533.843 -9017515.172 22460561.377 10 0 60584 23400.00000 0 -7306869.949 -11618962.672 21503497.053 10 0 60584 24300.00000 0 -6767623.162 -14130220.264 20128946.732 10 0 60584 25200.00000 0 -6445632.136 -16484070.881 18363443.378 10 0 60584 26100.00000 0 -6320891.216 -18617493.497 16241135.112 10 0 60584 27000.00000 0 -6362562.786 -20474115.542 13803134.398 10 0 60584 27900.00000 0 -6530459.657 -22006404.197 11096729.046 10 0 60584 28800.00000 0 -6776935.323 -23177504.568 8174469.420 10 0 60584 29700.00000 0 -7049102.256 -23962647.141 5093149.007 10 0 60584 30600.00000 0 -7291284.127 -24350064.744 1912697.966 10 0 60584 31500.00000 0 -7447597.419 -24341379.745 -1304988.470 10 0 60584 32400.00000 0 -7464551.969 -23951444.641 -4497263.229 10 0 60584 33300.00000 0 -7293558.796 -23207642.516 -7601957.656 10 0 60584 34200.00000 0 -6893237.338 -22148676.877 -10558603.501 10 0 60584 35100.00000 0 -6231422.608 -20822902.368 -13309621.563 10 0 60584 36000.00000 0 -5286785.671 -19286267.419 -15801452.630 10 0 60584 36900.00000 0 -4049997.387 -17599956.478 -17985607.628 10 0 60584 37800.00000 0 -2524385.011 -15827832.099 -19819615.851 10 0 60584 38700.00000 0 -726052.957 -14033785.395 -21267852.516 10 0 60584 39600.00000 0 1316538.109 -12279106.926 -22302229.527 10 0 60584 40500.00000 0 3563516.644 -10619988.705 -22902736.428 10 0 60584 41400.00000 0 5965030.811 -9105262.022 -23057821.642 10 0 60584 42300.00000 0 8463104.591 -7774465.356 -22764607.397 10 0 60584 43200.00000 0 10993842.046 -6656322.308 -22028935.028 10 0 60584 44100.00000 0 13489887.989 -5767691.903 -20865240.634 10 0 60584 45000.00000 0 15883042.698 -5113033.575 -19296264.255 10 0 60584 45900.00000 0 18106922.157 -4684407.410 -17352598.860 10 0 60584 46800.00000 0 20099553.548 -4462007.715 -15072088.368 10 0 60584 47700.00000 0 21805798.525 -4415205.712 -12499086.745 10 0 60584 48600.00000 0 23179504.126 -4504055.902 -9683592.781 10 0 60584 49500.00000 0 24185292.589 -4681201.324 -6680277.438 10 0 60584 50400.00000 0 24799916.443 -4894096.416 -3547422.734 10 0 60584 51300.00000 0 25013123.374 -5087453.015 -345792.728 10 0 60584 52200.00000 0 24827995.836 -5205805.890 2862541.583 10 0 60584 53100.00000 0 24260752.195 -5196089.328 6015400.787 10 0 60584 54000.00000 0 23340018.597 -5010116.061 9051696.005 10 0 60584 54900.00000 0 22105602.652 -4606853.964 11912605.431 10 0 60584 55800.00000 0 20606820.611 -3954404.612 14542706.119 10 0 60584 56700.00000 0 18900448.045 -3031600.224 16891039.726 10 0 60584 57600.00000 0 17048379.450 -1829151.425 18912092.347 10 0 60584 58500.00000 0 15115094.009 -350296.963 20566670.170 10 0 60584 59400.00000 0 13165032.554 1389072.975 21822654.814 10 0 60584 60300.00000 0 11259994.244 3360826.464 22655624.341 10 0 60584 61200.00000 0 9456660.568 5525517.219 23049328.352 10 0 60584 62100.00000 0 7804348.992 7833792.980 22996008.137 10 0 60584 63000.00000 0 6343089.104 10228228.366 22496555.495 10 0 60584 63900.00000 0 5102100.959 12645507.944 21560506.594 10 0 60584 64800.00000 0 4098738.794 15018870.534 20205870.132 10 0 60584 65700.00000 0 3337944.154 17280714.585 18458791.972 10 0 60584 66600.00000 0 2812231.429 19365257.174 16353061.457 10 0 60584 67500.00000 0 2502206.623 21211136.388 13929467.647 10 0 60584 68400.00000 0 2377597.801 22763848.574 11235016.732 10 0 60584 69300.00000 0 2398753.984 23977918.161 8322024.879 10 0 60584 70200.00000 0 2518549.245 24818708.489 5247103.521 10 0 60584 71100.00000 0 2684611.218 25263796.770 2070056.625 10 0 60584 72000.00000 0 2841779.078 25303854.402 -1147288.292 10 0 60584 72900.00000 0 2934685.884 24942994.737 -4342291.951 10 0 60584 73800.00000 0 2910354.512 24198573.008 -7452733.325 10 0 60584 74700.00000 0 2720695.605 23100446.476 -10418032.597 10 0 60584 75600.00000 0 2324800.005 21689726.044 -13180441.998 10 0 60584 76500.00000 0 1690926.898 20017072.244 -15686180.083 10 0 60584 77400.00000 0 798101.997 18140608.037 -17886486.303 10 0 60584 78300.00000 0 -362743.116 16123536.997 -19738574.663 10 0 60584 79200.00000 0 -1788139.673 14031567.786 -21206467.546 10 0 60584 80100.00000 0 -3461985.830 11930253.743 -22261693.476 10 0 60584 81000.00000 0 -5355990.773 9882359.521 -22883835.635 10 0 60584 81900.00000 0 -7430640.571 7945365.080 -23060921.085 10 0 60584 82800.00000 0 -9636645.445 6169211.114 -22789643.927 10 0 60584 83700.00000 0 -11916808.047 4594379.303 -22075418.941 10 0 60584 84600.00000 0 -14208234.764 3250386.336 -20932265.527 10 0 60584 85500.00000 0 -16444797.853 2154753.042 -19382524.963 10 0 60585 0.00000 0 -18559745.711 1312489.859 -17456417.308 10 0 60585 900.00000 0 -20488353.857 716117.730 -15191445.917 10 0 60585 1800.00000 0 -22170503.664 346222.540 -12631664.166 10 0 60585 2700.00000 0 -23553085.610 172516.384 -9826815.360 10 0 60585 3600.00000 0 -24592124.567 155360.496 -6831365.143 10 0 60585 4500.00000 0 -25254540.263 247683.844 -3703444.294 10 0 60585 5400.00000 0 -25519470.007 397215.540 -503722.544 10 0 60585 6300.00000 0 -25379099.203 548936.204 2705764.813 10 0 60585 7200.00000 0 -24838965.690 647644.405 5862814.858 10 0 60585 8100.00000 0 -23917725.862 640529.725 8906256.570 10 0 60585 9000.00000 0 -22646392.812 479643.853 11777129.040 10 0 60585 9900.00000 0 -21067078.663 124165.554 14419816.010 10 0 60585 10800.00000 0 -19231293.587 -457635.909 16783115.383 10 0 60585 11700.00000 0 -17197872.273 -1286821.711 18821223.739 10 0 60585 12600.00000 0 -15030613.779 -2372655.588 20494617.543 10 0 60585 13500.00000 0 -12795732.346 -3711975.219 21770814.749 10 0 60585 14400.00000 0 -10559224.361 -5289090.407 22625002.734 10 0 60585 15300.00000 0 -8384260.019 -7076213.823 23040520.814 10 0 60585 16200.00000 0 -6328707.178 -9034408.144 23009188.207 10 0 60585 17100.00000 0 -4442889.406 -11115012.067 22531470.895 10 0 60585 18000.00000 0 -2767670.849 -13261487.818 21616483.649 10 0 60585 18900.00000 0 -1332947.030 -15411615.059 20281826.301 10 0 60585 19800.00000 0 -156604.254 -17499941.461 18553256.287 10 0 60585 20700.00000 0 756009.086 -19460388.993 16464202.536 10 0 60585 21600.00000 0 1412077.129 -21228907.948 14055128.787 10 0 60585 22500.00000 0 1830777.237 -22746068.043 11372757.448 10 0 60585 23400.00000 0 2042229.379 -23959477.934 8469168.111 10 0 60585 24300.00000 0 2085978.510 -24825931.018 5400787.623 10 0 60585 25200.00000 0 2009074.341 -25313186.479 2227291.113 10 0 60585 26100.00000 0 1863830.224 -25401309.548 -989564.321 10 0 60585 27000.00000 0 1705356.976 -25083513.380 -4187149.934 10 0 60585 27900.00000 0 1588977.298 -24366466.099 -7303195.065 10 0 60585 28800.00000 0 1567631.855 -23270049.307 -10277011.060 10 0 60585 29700.00000 0 1689388.565 -21826577.831 -13050684.256 10 0 60585 30600.00000 0 1995162.218 -20079513.512 -15570213.556 10 0 60585 31500.00000 0 2516742.543 -18081727.499 -17786569.366 10 0 60585 32400.00000 0 3275215.438 -15893384.593 -19656652.596 10 0 60585 33300.00000 0 4279845.153 -13579539.142 -21144134.677 10 0 60585 34200.00000 0 5527465.388 -11207543.922 -22220162.249 10 0 60585 35100.00000 0 7002405.461 -8844380.955 -22863913.208 10 0 60585 36000.00000 0 8676954.988 -6554026.021 -23062993.878 10 0 60585 36900.00000 0 10512347.678 -4394956.783 -22813670.412 10 0 60585 37800.00000 0 12460223.038 -2417907.837 -22120930.791 10 0 60585 38700.00000 0 14464504.775 -663965.277 -20998377.074 10 0 60585 39600.00000 0 16463617.307 836921.233 -19467950.748 10 0 60585 40500.00000 0 18392947.786 2066948.594 -17559497.181 10 0 60585 41400.00000 0 20187450.883 3020952.512 -15310178.075 10 0 60585 42300.00000 0 21784287.739 3706363.381 -12763743.716 10 0 60585 43200.00000 0 23125389.147 4142629.834 -9969679.345 10 0 60585 44100.00000 0 24159836.269 4360136.156 -6982242.346 10 0 60585 45000.00000 0 24845959.882 4398660.777 -3859408.996 10 0 60585 45900.00000 0 25153070.889 4305442.147 -661751.219 10 0 60585 46800.00000 0 25062750.328 4132934.543 2548734.973 10 0 60585 47700.00000 0 24569645.409 3936349.117 5709826.720 10 0 60585 48600.00000 0 23681738.779 3771084.272 8760274.272 10 0 60585 49500.00000 0 22420080.017 3690153.895 11640980.778 10 0 60585 50400.00000 0 20817990.745 3741721.843 14296139.500 10 0 60585 51300.00000 0 18919776.390 3966846.489 16674307.029 10 0 60585 52200.00000 0 16778997.967 4397530.278 18729392.468 10 0 60585 53100.00000 0 14456375.304 5055156.458 20421544.163 10 0 60585 54000.00000 0 12017408.089 5949379.094 21717917.588 10 0 60585 54900.00000 0 9529812.661 7077513.717 22593310.175 10 0 60585 55800.00000 0 7060879.933 8424455.260 23030651.257 10 0 60585 56700.00000 0 4674863.001 9963128.231 23021337.812 10 0 60585 57600.00000 0 2430501.859 11655452.086 22565409.371 10 0 60585 58500.00000 0 378787.100 13453783.358 21671558.195 10 0 60585 59400.00000 0 -1438945.161 15302776.263 20356973.662 10 0 60585 60300.00000 0 -2992508.385 17141585.841 18647022.780 10 0 60585 61200.00000 0 -4263888.637 18906322.995 16574771.691 10 0 60585 62100.00000 0 -5247752.968 20532659.803 14180356.152 10 0 60585 63000.00000 0 -5951421.841 21958476.524 11510211.908 10 0 60585 63900.00000 0 -6394306.755 23126439.287 8616178.977 10 0 60585 64800.00000 0 -6606836.787 23986399.752 5554496.546 10 0 60585 65700.00000 0 -6628919.541 24497514.891 2384707.843 10 0 60585 66600.00000 0 -6508002.023 24629996.491 -831503.482 10 0 60585 67500.00000 0 -6296814.216 24366415.306 -4031522.120 10 0 60585 68400.00000 0 -6050892.025 23702503.628 -7153030.516 10 0 60585 69300.00000 0 -5825985.845 22647421.293 -10135233.690 10 0 60585 70200.00000 0 -5675466.085 21223473.111 -12920054.318 10 0 60585 71100.00000 0 -5647837.139 19465289.165 -15453273.576 10 0 60585 72000.00000 0 -5784466.540 17418502.338 -17685594.434 10 0 60585 72900.00000 0 -6117626.716 15137978.879 -19573606.000 10 0 60585 73800.00000 0 -6668933.160 12685676.629 -21080629.755 10 0 60585 74700.00000 0 -7448245.691 10128221.157 -22177431.194 10 0 60585 75600.00000 0 -8453079.629 7534301.642 -22842783.392 10 0 60585 76500.00000 0 -9668551.826 4971995.487 -23063872.130 10 0 60585 77400.00000 0 -11067863.845 2506133.268 -22836535.517 10 0 60585 78300.00000 0 -12613301.846 195813.384 -22165334.300 10 0 60585 79200.00000 0 -14257711.043 -1907830.925 -21063452.397 10 0 60585 80100.00000 0 -15946382.732 -3763520.419 -19552430.335 10 0 60585 81000.00000 0 -17619274.699 -5341297.511 -17661737.430 10 0 60585 81900.00000 0 -19213471.998 -6623513.496 -15428191.505 10 0 60585 82800.00000 0 -20665785.093 -7605296.210 -12895237.750 10 0 60585 83700.00000 0 -21915376.748 -8294480.791 -10112100.972 10 0 60585 84600.00000 0 -22906307.934 -8711008.577 -7132827.760 10 0 60585 85500.00000 0 -23589896.412 -8885821.293 -4015237.260 10 0 60586 0.00000 0 -23926789.578 -8859298.693 -819801.168 10 0 60586 900.00000 0 -23888665.233 -8679306.681 2391527.116 10 0 60586 1800.00000 0 -23459489.023 -8398939.167 5556507.289 10 0 60586 2700.00000 0 -22636276.763 -8074049.365 8613813.657 10 0 60586 3600.00000 0 -21429329.373 -7760674.870 11504216.179 10 0 60586 4500.00000 0 -19861930.781 -7512465.112 14171720.287 10 0 60586 5400.00000 0 -17969521.123 -7378219.399 16564643.736 10 0 60586 6300.00000 0 -15798379.207 -7399639.054 18636610.372 10 0 60586 7200.00000 0 -13403868.389 -7609388.068 20347442.309 10 0 60586 8100.00000 0 -10848317.854 -8029543.867 21663934.019 10 0 60586 9000.00000 0 -8198626.188 -8670503.576 22560494.039 10 0 60586 9900.00000 0 -5523685.457 -9530392.348 23019642.300 10 0 60586 10800.00000 0 -2891731.393 -10594999.622 23032353.678 10 0 60586 11700.00000 0 -367728.286 -11838247.377 22598240.971 10 0 60586 12600.00000 0 1989103.958 -13223172.412 21725573.264 10 0 60586 13500.00000 0 4127518.862 -14703383.314 20431128.483 10 0 60586 14400.00000 0 6006136.565 -16224932.870 18739881.874 10 0 60586 15300.00000 0 7594922.699 -17728529.035 16684535.176 10 0 60586 16200.00000 0 8876191.488 -19151992.982 14304894.248 10 0 60586 17100.00000 0 9845091.197 -20432861.864 11647105.988 10 0 60586 18000.00000 0 10509551.508 -21511027.163 8762768.389 10 0 60586 18900.00000 0 10889695.108 -22331297.349 5707930.316 10 0 60586 19800.00000 0 11016738.360 -22845776.185 2542000.261 10 0 60586 20700.00000 0 10931427.814 -23015955.229 -673414.492 10 0 60586 21600.00000 0 10682079.258 -22814430.918 -3875715.027 10 0 60586 22500.00000 0 10322303.197 -22226172.261 -7002539.814 10 0 60586 23400.00000 0 9908514.263 -21249284.276 -9992990.380 10 0 60586 24300.00000 0 9497331.417 -19895233.783 -12788828.447 10 0 60586 25200.00000 0 9142980.549 -18188527.147 -15335620.004 10 0 60586 26100.00000 0 8894810.859 -16165853.051 -17583802.913 10 0 60586 27000.00000 0 8795031.385 -13874726.127 -19489656.537 10 0 60586 27900.00000 0 8876764.373 -11371688.462 -21016154.145 10 0 60586 28800.00000 0 9162498.408 -8720144.606 -22133681.449 10 0 60586 29700.00000 0 9663006.903 -5987920.929 -22820607.652 10 0 60586 30600.00000 0 10376777.594 -3244651.438 -23063698.513 10 0 60586 31500.00000 0 11289976.852 -559099.086 -22858364.184 10 0 60586 32400.00000 0 12376949.940 2003476.124 -22208737.862 10 0 60586 33300.00000 0 13601235.765 4383793.376 -21127584.630 10 0 60586 34200.00000 0 14917053.059 6530769.570 -19636042.994 10 0 60586 35100.00000 0 16271195.189 8403389.202 -17763204.822 10 0 60586 36000.00000 0 17605253.832 9972149.455 -15545542.307 10 0 60586 36900.00000 0 18858078.014 11220022.177 -13026193.456 10 0 60586 37800.00000 0 19968365.302 12142894.690 -10254120.206 10 0 60586 38700.00000 0 20877276.507 12749473.129 -7283155.598 10 0 60586 39600.00000 0 21530964.316 13060654.369 -4170958.612 10 0 60586 40500.00000 0 21882909.984 13108394.739 -977896.907 10 0 60586 41400.00000 0 21895970.273 12934124.586 2234120.921 10 0 60586 42300.00000 0 21544049.008 12586776.557 5402841.034 10 0 60586 43200.00000 0 20813323.280 12120511.427 8466865.028 10 0 60586 44100.00000 0 19702972.967 11592237.670 11366832.705 10 0 60586 45000.00000 0 18225382.841 11059029.386 14046564.432 10 0 60586 45900.00000 0 16405808.437 10575551.168 16454141.579 10 0 60586 46800.00000 0 14281518.974 10191598.004 18542904.847 10 0 60586 47700.00000 0 11900452.163 9949853.364 20272351.866 10 0 60586 48600.00000 0 9319435.767 9883959.438 21608917.495 10 0 60586 49500.00000 0 6602048.479 10016980.526 22526622.367 10 0 60586 50400.00000 0 3816207.492 10360324.251 23007577.591 10 0 60586 51300.00000 0 1031581.348 10913166.413 23042336.079 10 0 60586 52200.00000 0 -1683066.151 11662404.514 22630083.558 10 0 60586 53100.00000 0 -4262492.098 12583143.095 21778665.100 10 0 60586 54000.00000 0 -6647443.280 13639692.004 20504445.833 10 0 60586 54900.00000 0 -8786875.919 14787037.275 18832007.428 10 0 60586 55800.00000 0 -10639834.572 15972724.368 16793684.965 10 0 60586 56700.00000 0 -12176912.154 17139075.955 14428951.805 10 0 60586 57600.00000 0 -13381230.199 18225651.943 11783663.149 10 0 60586 58500.00000 0 -14248898.231 19171848.602 8909171.951 10 0 60586 59400.00000 0 -14788932.887 19919527.243 5861333.691 10 0 60586 60300.00000 0 -15022640.182 20415560.984 2699419.059 10 0 60586 61200.00000 0 -14982487.115 20614191.031 -515044.023 10 0 60586 62100.00000 0 -14710510.670 20479091.608 -3719475.928 10 0 60586 63000.00000 0 -14256332.195 19985054.718 -6851473.906 10 0 60586 63900.00000 0 -13674862.178 19119222.002 -9850038.559 10 0 60586 64800.00000 0 -13023793.781 17881810.227 -12656773.008 10 0 60586 65700.00000 0 -12360992.608 16286298.580 -15217030.134 10 0 60586 66600.00000 0 -11741894.521 14359069.004 -17480984.472 10 0 60586 67500.00000 0 -11217022.805 12138514.130 -19404607.118 10 0 60586 68400.00000 0 -10829730.555 9673650.019 -20950524.286 10 0 60586 69300.00000 0 -10614264.331 7022291.831 -22088742.753 10 0 60586 70200.00000 0 -10594230.995 4248868.875 -22797228.397 10 0 60586 71100.00000 0 -10781532.302 1421970.382 -23062327.208 10 0 60586 72000.00000 0 -11175811.736 -1388275.617 -22879021.312 10 0 60586 72900.00000 0 -11764436.209 -4112881.331 -22251015.971 10 0 60586 73800.00000 0 -12523012.706 -6686625.171 -21190656.697 10 0 60586 74700.00000 0 -13416417.315 -9050516.185 -19718678.886 10 0 60586 75600.00000 0 -14400292.703 -11153995.584 -17863795.526 10 0 60586 76500.00000 0 -15422950.458 -12956785.209 -15662131.438 10 0 60586 77400.00000 0 -16427597.898 -14430307.619 -13156515.435 10 0 60586 78300.00000 0 -17354795.424 -15558620.482 -10395644.362 10 0 60586 79200.00000 0 -18145041.013 -16338828.261 -7433135.337 10 0 60586 80100.00000 0 -18741373.131 -16780955.883 -4326484.688 10 0 60586 81000.00000 0 -19091882.752 -16907291.580 -1135953.768 10 0 60586 81900.00000 0 -19152029.020 -16751228.093 2076596.833 10 0 60586 82800.00000 0 -18886661.355 -16355652.224 5248902.125 10 0 60586 83700.00000 0 -18271663.181 -15770951.441 8319493.699 10 0 60586 84600.00000 0 -17295148.220 -15052721.984 11228883.896 10 0 60586 85500.00000 0 -15958159.015 -14259275.152 13920710.667 99